Location: Champs
(48.8539°N, 2.6040°E)
Time: 21:37:10
(UTC+00:00)

SPOT 1 Rocket Y - Pass Details

Date: 21 August 2022
Orbit: 784 x 832 km, 98.5° (Epoch: 06 October)

Event Time Altitude Azimuth Distance (km) Brightness Sun altitude
Exits shadow 20:28:05 10° 174° (S) 2,398 7.7 -14.4°
Reaches altitude 10° 20:28:09 10° 174° (S) 2,369 7.6 -14.4°
Maximum altitude 20:33:22 68° 257° (WSW) 869 5.9 -15.1°
Drops below altitude 10° 20:38:42 10° 341° (NNW) 2,418 9.0 -15.8°
Sets 20:41:06 0° 344° (NNW) 3,361 9.8 -16.0°
